CO-66
1 32791U 08021J 12109.22412501 .00001512 00000-0 19122-3 0 2713
2 32791 097.8063 171.6673 0014561 255.6178 104.3377 14.83214479214857
RS-30
1 32953U 08025A 12110.61402917 .00000010 00000-0 00000 0 0 7125
2 32953 082.5038 331.5715 0019781 075.7725 284.5549 12.43022442177280
TACSAT-3
1 35001U 09028A 12110.82554509 .00502840 00000-0 88804-3 0 9609
2 35001 040.4429 064.5758 0017231 200.0432 160.0195 16.00603037165239
PHARMSAT
1 35002U 09028B 12110.93843261 .00080186 00000-0 56155-3 0 8694
2 35002 040.4619 077.2554 0001817 174.4666 185.6710 15.73181182165116
METEOR-M
1 35865U 09049A 12110.60130959 -.00000011 00000-0 14802-4 0 3375
2 35865 098.6601 166.0087 0001876 205.8840 154.2259 14.21859647134278
RS-38
1 35869U 09049E 12110.34956326 .00000012 00000-0 25232-4 0 3474
2 35869 098.6558 165.7666 0003982 215.0228 145.0689 14.22063972134257
JUGNU
1 37839U 11058B 12109.81133472 .00000619 00000-0 19019-3 0 01314
2 37839 019.9636 357.9427 0018458 289.9100 069.9300 14.12044095026845
SRMSAT
1 37841U 11058D 12109.78512292 .00000264 00000-0 00000-0 0 01339
2 37841 019.9733 001.7972 0012353 257.3221 102.5816 14.10130080026806
RAX-2
1 37853U 11061D 12109.95542874 .00003229 00000-0 26525-3 0 01566
2 37853 101.7184 123.1968 0249434 159.7151 201.4175 14.79382369025644
AUBIESAT
1 37854U 11061E 12110.60084803 .00003612 00000-0 29040-3 0 1565
2 37854 101.7197 124.3110 0251021 157.2262 204.0306 14.79729977 25726
HRBE
1 37855U 11061F 12109.93304715 .00003194 00000-0 25850-3 0 01747
2 37855 101.7201 123.3096 0251474 159.2361 201.9280 14.79603764025620
RS-39
1 38051U 11062C 12110.56321920 .00006415 00000-0 28062-3 0 2619
2 38051 051.6333 079.0054 0010382 183.3845 289.7609 15.23241680 13031
E-STAR
1 38079U 12006C 12110.34839672 .00059769 00000-0 14597-2 0 1584
2 38079 069.4938 089.8112 0762642 321.8892 033.0634 14.10892566 9276
GOLIAT
1 38085U 12006J 12110.37263967 .00052650 00000-0 13439-2 0 1566
2 38085 069.4903 089.8552 0762068 321.9103 033.0547 14.10132075 9276
